STARLINK-30324, 57640

Orbit data source: Space-Track

STARLINK-30324, 57640 is a payload satellite owned by SpaceX/Seattle (US) in LEO that was launched on Thu, 17 Aug 2023 UTC via an FALCON 9 launch vehicle from the Air Force Eastern Test Range (AFETR). Payload-class satellites include a variety of spacecraft equipped with specific instruments for various scientific and technological missions. These include communications satellites like Starlink; space stations such as the ISS; scientific satellites like the Hubble; Earth observation satellites from companies like Planet Labs, Umbra, and HawkEye 360; GPS; miniature CubeSats for education and research; and military/defense satellites.

Loading next visibility...
Identifier
57640, 2023-122J
Orbit
LEO
Country
Flag of USUS
Related business
Manufacturer
SpaceX/Seattle
Mission
Operational Commercial Communications
Bus & Motor
STARLINK V2M, Unknown motor
Mass
730 kg wet, ~700 kg dry
Launch date (UTC)
2023-08-17 (3 years ago)
Launch vehicle
FALCON 9
Launch site
Air Force Eastern Test Range (AFETR)
Object type
Payload
Rocket body
Debris
Shape & HBR
Box + 2 Pan, 17.7 m
Radar Cross Section
33.884 m², Large (>1 m²)

Expand to show TLE details & history
Last TLE update: 2 days ago

TLE from 2 days ago
0 STARLINK-30324
1 57640U 23122J   26171.47404209 -.00000933  00000-0 -24394-4 0  9992
2 57640  42.9988 232.2739 0001414 279.4831  80.5861 15.27580763157911
Epoch: 2026-06-20T11:22Z
TLE epoch observation values (Epoch: 2026-06-20T11:22:37.236Z)
Latitude
-0.00001°
Longitude
152.93059°
Altitude
482.664 km
Speed
7.626 km/s
True Right ascension
15h 29m 05s
True Declination
0° 00' 00"
Sunlit
Object was in full shadow at epoch
Visualization orbit readout
Latitude
Unknown
Longitude
Unknown
Altitude
Unknown
Speed
Unknown
Apparent Right ascension
Unknown
Apparent Declination
Unknown
Sunlit
N/A
Visualization observer readout
Local Sidereal Time
21:38:10
Azimuth
Unknown
Elevation
Unknown
Doppler factor
Unknown
Orbital elements
Apogee altitude
485.963 km
Perigee altitude
484.022 km
Semi-major axis
6,863.129 km
Eccentricity
0.00014
Inclination
42.9988°
RAAN
232.2739°
Arg. of periapsis
279.4831°
True anomaly
80.60209°
Mean anomaly
80.5861°
Eccentric anomaly
80.59409°
Mean motion
3.81733 °/min
Orbital period
94.31 mins
BSTAR
-0.000024394
Loading maneuver chart data...
Computing Atmospheric mass density...
Loading historical data...
Loading historical data...
Loading historical data...
Loading historical data...
Loading historical data...
Loading historical data...
Loading historical data...

Documentation

Showing up to 5 results
|